Regional Weather Roundup
Issued by NWS Mt. Holly, NJ

Home | Current Version | Previous Version | Text Only | Print | Product List | Glossary On
Versions: 1 2 3 4 5 6 7 8 9 10 11 12 13 14 15 16 17 18 19 20 21 22 23 24 25 26 27 28 29 30 31 32 33 34 35 36 37 38 39 40 41 42 43 44 45 46 47 48 49 50
000
ASUS41 KPHI 052312
RWRPHI

REGIONAL WEATHER ROUNDUP
NATIONAL WEATHER SERVICE MOUNT HOLLY NJ
600 PM EST FRI FEB 05 2016

NOTE:  "FAIR" INDICATES FEW OR NO CLOUDS BELOW 12,000 FEET WITH NO
SIGNIFICANT WEATHER AND/OR OBSTRUCTIONS TO VISIBILITY.

 * = STATION DOES NOT REPORT PRECIPITATION (E.G. RAIN, SNOW, ETC.)
        OR FOG.

NJZ015>026-060000-
SOUTHERN NEW JERSEY

CITY           SKY/WX    TMP DP  RH WIND       PRES   REMARKS
POMONA         PTCLDY    37  25  61 W10       30.27R WCI  30
WILDWOOD*      PTCLDY    39  25  56 NW9G17    30.30R WCI  33
MILLVILLE      PTCLDY    37  25  61 W10       30.29R WCI  30
WRIGHTSTOWN    CLEAR     37  19  49 NW13      30.24R WCI  28
MOUNT HOLLY    CLEAR     37  19  48 NW10      30.28R WCI  30
TRENTON        CLEAR     37  16  42 NW13G18   30.26R WCI  29

$$
NJZ001>014-060000-
NORTHERN NEW JERSEY

CITY           SKY/WX    TMP DP  RH WIND       PRES   REMARKS
SUSSEX         CLEAR     34  13  41 VRB6      30.24R WCI  29
ANDOVER*         N/A     33  12  41 N9G18     30.25R WCI  25
MORRISTOWN     CLEAR     36  16  44 N10G18    30.24R WCI  28
NEWARK         PTCLDY    37  17  44 NW16G24   30.24R WCI  28
TETERBORO      CLEAR     37  15  40 NW12      30.22R WCI  29
CALDWELL       CLEAR     36  14  40 NW9G17    30.24R WCI  29
SOMERVILLE     CLEAR     36  15  42 NW8       30.25R WCI  30
ALLAIRE*       CLEAR     36  18  48 NW9       30.24R WCI  29
TOMS RIVER*    CLEAR     34  21  60 NW8       30.26R WCI  27

$$
PAZ043-044-047-054-055-060>062-066>071-060000-
EASTERN PENNSYLVANIA

CITY           SKY/WX    TMP DP  RH WIND       PRES   REMARKS
PHILADELPHIA   CLEAR     41  15  35 NW13      30.29R
NORTH PHILA    CLEAR     38  19  46 NW12      30.29R WCI  30
BLUE BELL*       N/A     36  18  48 NW8       30.28R WCI  29
DOYLESTOWN     CLEAR     34  15  46 NW13G22   30.26R WCI  25
QUAKERTOWN*    CLEAR     36  16  44 N10G16    30.28R WCI  28
PERKASIE*      MOCLDY    36  16  44 NW8G18    30.28R WCI  29
POTTSTOWN      CLEAR     36  17  46 NW12      30.29R WCI  28
LANCASTER      PTCLDY    35  22  58 W8        30.30R WCI  29
COATESVILLE    CLEAR     36  25  64 NW14      30.29R WCI  27
READING        PTCLDY    36  18  48 NW10      30.29R WCI  28
ALLENTOWN      CLEAR     36  15  42 N14       30.28R WCI  27
MOUNT POCONO   CLEAR     27  11  51 NW15G24   30.18R WCI  15
HAZLETON       PTCLDY    32  18  55 NW7       30.26R WCI  26
LEHIGHTON      FAIR      36  16  44 N7        30.29R WCI  30
WILKES BARRE   CLEAR     31  14  49 NW12      30.26R WCI  22

$$
DEZALL-MDZ008-012-015-019-020-060000-
DELAWARE AND EASTERN MARYLAND

CITY           SKY/WX    TMP DP  RH WIND       PRES   REMARKS
WILMINGTON     CLEAR     37  23  56 NW14      30.31R WCI  28
DOVER          CLEAR     38  26  62 NW12      30.30R WCI  30
GEORGETOWN     PTCLDY    39  23  52 NW6       30.31R WCI  35
ABERDEEN       PTCLDY    39  23  52 W9        30.32R WCI  33
PATUXENT       CLEAR     39  21  48 NW13      30.34R WCI  31
OCEAN CITY     CLEAR     38  24  57 NW12G17   30.29R WCI  30
WALLOPS ISLAND FAIR      38  24  57 NW8       30.31R WCI  32
CAMBRIDGE      CLEAR     37  23  56 W5        30.33R WCI  34
SALISBURY      CLEAR     38  24  57 NW9       30.31R WCI  31

$$
PAZ001-021-NYZ056-072-MDZ011-DCZ001-060000-
OTHER NEARBY LOCATIONS

CITY           SKY/WX    TMP DP  RH WIND       PRES   REMARKS
HARRISBURG     PTCLDY    37  21  52 W14       30.32R WCI  28
STATE COLLEGE  CLEAR     30  16  55 W9        30.31R WCI  22
WILLIAMSPORT   CLEAR     34  19  54 NW12      30.31R WCI  25
BINGHAMTON     MOCLDY    26  15  63 NW9       30.23R WCI  17
NEW YORK CITY  CLEAR     37  15  40 W13G21    30.24R WCI  29
BALTIMORE      PTCLDY    37  19  48 NW10G18   30.34R WCI  30
WASHINGTON DC  FAIR      40  18  41 NW17G23   30.36R WCI  31

$$



USA.gov is the U.S. government's official web portal to all federal, state and local government web resources and services.